Lid_Strength_Index
4 4 3 3 3 2 2 2 2 1 1 1 1 1 0 -0 -0 0 0 0 0 0 0 0 -1 -0 -1 -1 -1 -1 -1 -0 -0
5 4 4 3 3 2 2 2 2 1 1 1 1 1 0 0 0 0 0 -0 -0 0 -0 -0 -1 -1 -1 -1 -1 -1 -1 -0 -0
5 4 4 3 3 2 2 1 1 1 1 1 1 1 0 0 0 -0 -0 -0 0 -0 -0 -1 -0 -0 -0 -0 -1 -1 -1 -0 -1
5 4 4 3 3 2 2 1 1 1 1 1 1 1 1 1 0 0 -0 0 -0 -0 -0 -0 -0 -0 -0 -0 -0 -1 -0 -0 -0
5 4 4 3 3 2 2 2 2 2 1 1 1 1 1 1 0 0 0 0 0 -0 -0 -1 -0 -0 -0 -0 -0 -0 -0 0 -0
5 4 4 3 3 3 2 2 2 2 1 1 1 1 1 1 1 1 1 0 0 -0 -0 -0 -0 -0 -0 0 -0 0 -0 -0 -0
5 5 4 3 3 3 2 2 2 2 1 1 1 1 1 1 1 1 0 0 0 -0 -0 -0 0 -0 -0 -0 -0 -0 -0 -0 -0
5 5 4 4 3 3 2 2 2 2 1 1 1 1 1 1 0 0 0 0 0 -0 -0 -0 -0 -0 0 -0 0 0 0 -0 -0
6 5 5 4 4 3 3 2 2 2 2 1 1 1 1 1 1 1 0 0 0 0 0 0 0 0 0 0 0 2 3 1 2
5 5 4 4 4 3 3 2 2 2 2 1 1 1 1 1 1 1 1 0 0 1 1 0 1 0 0 1 0 4 4 2 1
5 4 4 4 3 3 2 2 2 1 1 1 1 1 1 1 1 1 1 1 1 1 1 1 1 1 1 1 1 5 4 2 1
4 4 3 3 2 2 2 2 1 2 2 1 1 2 1 1 1 1 1 1 1 1 1 1 1 1 1 1 1 6 5 3 1
3 3 3 2 2 2 2 1 1 2 2 2 2 1 1 1 0 1 1 1 1 1 1 1 1 1 0 2 1 6 6 5 1
3 2 3 2 2 2 2 1 1 2 2 2 1 1 1 0 0 0 0 0 0 1 1 1 1 1 1 1 1 2 7 7 2
3 3 2 2 2 2 2 1 1 2 2 1 1 1 1 0 0 0 0 1 1 1 1 1 1 1 1 1 0 5 8 8 7
3 3 2 2 2 2 2 1 1 2 1 1 1 1 1 1 0 0 0 1 1 1 1 2 2 2 2 2 2 4 8 8 8
3 2 3 2 2 2 2 1 1 1 1 0 1 1 1 1 1 1 1 1 1 1 2 2 2 2 2 2 2 2 4 6 7
3 2 2 2 2 2 2 1 1 1 0 0 1 1 1 1 1 1 1 1 1 1 1 2 2 2 2 2 2 2 5 6 5
3 3 2 2 2 2 2 1 1 1 0 0 1 2 1 2 2 1 1 2 2 7 7 9 10 11 6 1 5 10 11 12 11
3 2 2 2 2 2 1 1 1 1 0 0 1 2 1 1 2 2 2 2 2 3 2 10 12 12 12 12 9 12 13 13 13